"Date","Time","Latitude","Longitude","Speed","Course","Altitude","Satellites","GPS quality","C1","0.25um","0.28um","0.3um","0.35um","0.4um","0.45um","0.5um","0.58um","C2","0.65um","0.7um","0.8um","1.0um","1.3um","1.6um","2.0um","2.5um","C3","3.0um","3.5um","4.0um","5.0um","6.5um","7.5um","8.5um","10.0um","C4","12.5um","15.0um","17.5um","20.0um","25.0um","30.0um","32.0um",">32um"
11/08/11,11:07:41,38 43.2874 N,009 21.2329 W,76.32,344.30,95.4,08,1,N8,344,333,324,319,313,309,306,304,N8,300,296,295,289,279,264,239,213,n8,128,62,37,24,0,0,0,0,n8,0,0,0,0,0,0,0,0
11/08/11,11:07:48,38 43.4628 N,009 21.2968 W,101.48,344.19,98.7,08,1,N9,412,401,392,386,381,377,375,373,N9,368,364,361,355,346,336,318,283,n9,216,190,154,112,80,30,0,0,n9,0,0,0,0,0,0,0,0
11/08/11,11:07:54,38 43.6405 N,009 21.3623 W,113.90,344.63,115.4,08,1,N0,354,342,333,327,322,318,315,313,N0,307,304,301,294,283,271,244,224,n0,146,103,76,57,33,0,0,0,n0,0,0,0,0,0,0,0,0
11/08/11,11:08:00,38 43.8278 N,009 21.4303 W,117.77,343.76,155.1,08,1,N1,325,313,303,298,293,289,286,285,N1,280,274,271,265,256,245,224,205,n1,177,167,127,81,33,0,0,0,n1,0,0,0,0,0,0,0,0
11/08/11,11:08:05,38 43.9812 N,009 21.4880 W,113.73,343.93,211.2,08,1,N2,362,350,340,334,329,325,322,320,N2,316,312,310,304,299,290,266,240,n2,201,182,137,114,50,0,0,0,n2,0,0,0,0,0,0,0,0
11/08/11,11:08:11,38 44.1591 N,009 21.5514 W,109.01,344.63,274.3,08,1,N3,348,335,325,319,313,308,306,304,N3,301,296,294,291,283,274,248,231,n3,183,145,112,88,16,0,0,0,n3,0,0,0,0,0,0,0,0
11/08/11,11:08:18,38 44.3661 N,009 21.6097 W,107.76,350.04,324.2,08,1,N4,304,291,281,275,270,266,263,262,N4,258,255,252,246,240,233,216,193,n4,118,64,34,16,0,0,0,0,n4,0,0,0,0,0,0,0,0
11/08/11,11:08:24,38 44.5555 N,009 21.5938 W,116.05,11.37,332.3,08,1,N5,255,244,234,229,223,219,217,215,N5,212,206,203,197,190,183,160,144,n5,110,94,76,62,46,30,0,0,n5,0,0,0,0,0,0,0,0
11/08/11,11:08:30,38 44.7339 N,009 21.4658 W,126.43,37.75,331.4,08,1,N6,230,218,208,202,196,192,189,188,N6,185,182,180,173,167,161,144,115,n6,76,62,53,16,0,0,0,0,n6,0,0,0,0,0,0,0,0
11/08/11,11:08:35,38 44.8474 N,009 21.2832 W,133.03,56.77,331.0,08,1,N7,338,326,316,310,305,300,297,295,N7,291,288,284,280,274,267,255,240,n7,166,120,87,73,33,0,0,0,n7,0,0,0,0,0,0,0,0
11/08/11,11:08:41,38 44.9227 N,009 21.0033 W,141.19,77.42,336.6,08,1,N8,356,344,333,326,320,316,314,312,N8,309,306,305,301,295,290,282,268,n8,189,156,144,107,75,75,45,0,n8,0,0,0,0,0,0,0,0
11/08/11,11:08:48,38 44.9110 N,009 20.6422 W,147.74,100.25,348.5,08,1,N9,298,285,275,270,264,260,257,256,N9,252,248,246,243,234,226,215,183,n9,109,76,63,40,16,0,0,0,n9,0,0,0,0,0,0,0,0
11/08/11,11:08:54,38 44.8108 N,009 20.3448 W,152.81,119.01,357.1,08,1,N0,209,195,184,178,172,167,164,163,N0,159,157,155,152,146,139,127,118,n0,81,48,33,24,0,0,0,0,n0,0,0,0,0,0,0,0,0
11/08/11,11:09:00,38 44.6430 N,009 20.0858 W,159.83,134.45,352.2,08,1,N1,233,220,210,203,197,192,190,188,N1,186,183,181,177,171,164,147,131,n1,95,61,46,32,16,0,0,0,n1,0,0,0,0,0,0,0,0
11/08/11,11:09:05,38 44.4660 N,009 19.8960 W,166.94,141.01,342.2,08,1,N2,426,414,404,399,393,389,386,383,N2,379,374,371,366,357,344,324,296,n2,164,78,48,48,0,0,0,0,n2,0,0,0,0,0,0,0,0
11/08/11,11:09:11,38 44.2390 N,009 19.6699 W,172.57,141.92,332.9,08,1,N3,266,254,244,237,231,227,224,222,N3,218,214,212,209,200,194,178,157,n3,126,89,55,32,16,0,0,0,n3,0,0,0,0,0,0,0,0
11/08/11,11:09:18,38 43.9754 N,009 19.3897 W,175.98,139.19,328.2,08,1,N4,351,339,328,321,315,310,306,304,N4,299,295,292,287,279,272,259,225,n4,158,111,78,64,0,0,0,0,n4,0,0,0,0,0,0,0,0
11/08/11,11:09:24,38 43.7505 N,009 19.1419 W,177.50,139.11,329.7,08,1,N5,399,386,375,369,363,358,355,352,N5,348,345,342,336,328,320,297,271,n5,161,88,55,32,0,0,0,0,n5,0,0,0,0,0,0,0,0
11/08/11,11:09:30,38 43.5255 N,009 18.8937 W,176.74,138.87,338.7,08,1,N6,368,354,343,336,330,325,322,319,N6,316,310,306,300,293,285,267,245,n6,188,144,105,86,46,30,0,0,n6,0,0,0,0,0,0,0,0
11/08/11,11:09:35,38 43.3375 N,009 18.6883 W,177.93,139.58,338.1,08,1,N7,266,251,239,232,225,219,216,214,N7,210,206,204,199,192,185,176,153,n7,115,99,75,56,16,0,0,0,n7,0,0,0,0,0,0,0,0
11/08/11,11:09:41,38 43.1103 N,009 18.4370 W,180.21,138.84,329.9,08,1,N8,298,285,274,268,261,256,254,252,N8,247,242,239,234,225,217,207,176,n8,132,99,87,78,30,30,0,0,n8,0,0,0,0,0,0,0,0
11/08/11,11:09:48,38 42.8415 N,009 18.1394 W,183.01,138.71,324.1,08,1,N9,344,332,322,315,309,304,300,298,N9,294,290,289,283,276,269,248,230,n9,164,134,110,73,33,0,0,0,n9,0,0,0,0,0,0,0,0
11/08/11,11:09:54,38 42.6131 N,009 17.8748 W,185.06,136.62,326.7,08,1,N0,278,263,251,244,236,230,227,224,N0,221,216,214,210,201,195,186,161,n0,128,112,79,56,0,0,0,0,n0,0,0,0,0,0,0,0,0
11/08/11,11:10:00,38 42.3925 N,009 17.5976 W,184.76,135.19,330.7,08,1,N1,347,333,321,314,306,300,297,295,N1,291,287,285,281,271,263,247,232,n1,193,154,133,109,61,45,45,0,n1,0,0,0,0,0,0,0,0
11/08/11,11:10:05,38 42.2072 N,009 17.3699 W,184.46,136.61,336.7,08,1,N2,313,299,288,281,274,269,266,264,N2,260,255,252,249,243,234,214,196,n2,152,126,102,65,33,0,0,0,n2,0,0,0,0,0,0,0,0
11/08/11,11:10:11,38 41.9768 N,009 17.1065 W,185.63,138.80,335.4,08,1,N3,312,298,286,279,272,267,263,261,N3,257,253,250,246,239,232,224,193,n3,145,101,79,56,16,0,0,0,n3,0,0,0,0,0,0,0,0
11/08/11,11:10:18,38 41.6965 N,009 16.8062 W,189.06,140.46,317.7,08,1,N4,365,350,337,329,321,315,312,310,N4,306,302,298,293,286,276,257,231,n4,191,141,117,89,33,0,0,0,n4,0,0,0,0,0,0,0,0
11/08/11,11:10:24,38 41.4483 N,009 16.5500 W,191.83,141.06,298.0,08,1,N5,253,238,226,218,210,205,201,200,N5,196,191,189,183,177,169,150,126,n5,86,60,42,32,16,0,0,0,n5,0,0,0,0,0,0,0,0
11/08/11,11:10:30,38 41.1955 N,009 16.2937 W,192.87,141.33,285.3,08,1,N6,257,242,229,221,213,207,203,201,N6,198,195,192,187,182,178,163,146,n6,94,57,30,16,16,0,0,0,n6,0,0,0,0,0,0,0,0
11/08/11,11:10:35,38 40.9846 N,009 16.0889 W,187.85,142.84,303.6,08,1,N7,276,261,249,241,232,226,222,219,N7,215,212,210,207,203,197,191,173,n7,155,133,118,104,80,30,0,0,n7,0,0,0,0,0,0,0,0
11/08/11,11:10:41,38 40.7330 N,009 15.8575 W,184.48,144.46,326.7,08,1,N8,236,221,208,200,191,184,180,178,N8,175,172,169,166,163,153,139,127,n8,83,46,25,16,0,0,0,0,n8,0,0,0,0,0,0,0,0
11/08/11,11:10:48,38 40.4344 N,009 15.6115 W,182.43,149.61,343.9,08,1,N9,198,183,170,162,153,146,142,140,N9,137,134,133,128,122,117,114,99,n9,91,82,52,48,0,0,0,0,n9,0,0,0,0,0,0,0,0
11/08/11,11:10:54,38 40.1634 N,009 15.4325 W,183.26,153.16,344.1,08,1,N0,193,178,165,157,147,139,135,132,N0,129,126,125,122,118,113,109,100,n0,71,61,46,32,16,0,0,0,n0,0,0,0,0,0,0,0,0
11/08/11,11:11:00,38 39.8898 N,009 15.2531 W,184.90,152.36,338.5,08,1,N1,346,330,316,308,299,291,287,285,N1,282,278,276,272,268,263,251,240,n1,201,190,166,157,125,125,125,125,n1,125,0,0,0,0,0,0,0
11/08/11,11:11:05,38 39.6637 N,009 15.0965 W,184.48,150.95,339.0,08,1,N2,210,195,182,173,164,156,151,149,N2,146,143,141,139,137,134,125,110,n2,89,68,68,49,33,0,0,0,n2,0,0,0,0,0,0,0,0
11/08/11,11:11:11,38 39.3938 N,009 14.9041 W,185.99,150.75,335.4,08,1,N3,216,200,187,178,169,160,156,153,N3,149,146,144,142,138,132,124,112,n3,67,58,40,40,16,0,0,0,n3,0,0,0,0,0,0,0,0
11/08/11,11:11:18,38 39.0761 N,009 14.6759 W,187.39,150.37,325.0,08,1,N4,208,192,179,169,160,151,146,144,N4,139,135,133,130,125,120,112,101,n4,70,52,21,8,0,0,0,0,n4,0,0,0,0,0,0,0,0
11/08/11,11:11:24,38 38.8037 N,009 14.4805 W,186.63,150.60,328.1,08,1,N5,292,276,262,253,244,236,231,228,N5,225,222,220,215,211,204,188,170,n5,122,79,63,40,16,0,0,0,n5,0,0,0,0,0,0,0,0
11/08/11,11:11:30,38 38.5329 N,009 14.2881 W,184.82,150.82,338.7,08,1,N6,246,231,219,210,200,191,187,185,N6,182,180,178,174,169,164,151,129,n6,105,98,71,57,33,0,0,0,n6,0,0,0,0,0,0,0,0
11/08/11,11:11:35,38 38.3087 N,009 14.1312 W,183.53,151.34,349.1,08,1,N7,259,244,232,223,214,205,200,198,N7,194,191,189,185,180,173,165,154,n7,125,98,83,64,16,0,0,0,n7,0,0,0,0,0,0,0,0
11/08/11,11:11:41,38 38.0439 N,009 13.9395 W,182.17,150.03,358.7,08,1,N8,259,244,231,222,214,206,202,200,N8,197,194,192,188,183,175,166,146,n8,128,102,84,56,16,0,0,0,n8,0,0,0,0,0,0,0,0
11/08/11,11:11:48,38 37.7365 N,009 13.7085 W,185.03,149.38,349.9,08,1,N9,416,401,389,381,372,364,359,357,N9,354,350,348,345,342,338,332,305,n9,266,242,221,198,149,99,69,69,n9,0,0,0,0,0,0,0,0
11/08/11,11:11:54,38 37.4685 N,009 13.5022 W,188.56,148.64,328.3,08,1,N0,230,215,202,194,185,177,173,171,N0,167,164,163,159,156,153,145,134,n0,105,92,74,65,33,0,0,0,n0,0,0,0,0,0,0,0,0
11/08/11,11:12:00,38 37.1955 N,009 13.2978 W,189.60,150.48,318.3,08,1,N1,286,272,259,251,241,234,230,228,N1,225,221,220,216,211,203,191,178,n1,149,133,121,98,50,0,0,0,n1,0,0,0,0,0,0,0,0
11/08/11,11:12:05,38 36.9565 N,009 13.1552 W,189.55,156.55,317.2,08,1,N2,382,366,353,346,337,330,326,323,N2,320,317,316,314,311,308,300,284,n2,242,211,181,153,113,30,0,0,n2,0,0,0,0,0,0,0,0
11/08/11,11:12:11,38 36.6554 N,009 13.0319 W,189.42,164.72,318.3,08,1,N3,399,385,374,366,358,352,348,346,N3,342,339,338,336,333,328,323,312,n3,255,212,202,147,107,90,0,0,n3,0,0,0,0,0,0,0,0
11/08/11,11:12:18,38 36.2950 N,009 12.9367 W,187.79,168.90,325.1,08,1,N4,422,406,393,384,376,370,366,363,N4,360,357,355,353,350,345,338,315,n4,288,261,222,180,100,0,0,0,n4,0,0,0,0,0,0,0,0
11/08/11,11:12:24,38 35.9868 N,009 12.8635 W,188.33,169.28,327.6,08,1,N5,388,375,364,356,349,341,338,336,N5,334,332,329,327,324,320,312,294,n5,273,271,238,205,125,75,45,0,n5,0,0,0,0,0,0,0,0
11/08/11,11:12:30,38 35.6771 N,009 12.7896 W,188.89,169.34,321.9,08,1,N6,379,365,354,346,338,332,329,328,N6,326,323,322,319,316,311,309,302,n6,247,236,212,179,155,105,45,0,n6,0,0,0,0,0,0,0,0
11/08/11,11:12:35,38 35.4166 N,009 12.7397 W,189.24,172.31,320.0,08,1,N7,307,293,281,273,265,258,254,252,N7,249,246,245,243,239,233,229,217,n7,179,162,144,125,69,69,69,69,n7,0,0,0,0,0,0,0,0
11/08/11,11:12:41,38 35.1023 N,009 12.6972 W,189.27,173.82,321.9,08,1,N8,306,293,281,274,267,260,256,254,N8,251,248,246,245,242,238,228,215,n8,206,188,164,150,110,60,0,0,n8,0,0,0,0,0,0,0,0
11/08/11,11:12:48,38 34.7377 N,009 12.6427 W,187.32,172.73,331.0,08,1,N9,154,140,129,122,115,109,105,104,N9,102,100,98,97,93,91,90,84,n9,74,70,58,40,0,0,0,0,n9,0,0,0,0,0,0,0,0
11/08/11,11:12:54,38 34.4298 N,009 12.5960 W,184.63,173.32,347.3,08,1,N0,350,338,327,320,312,307,303,301,N0,298,297,295,294,293,289,284,273,n0,235,232,198,180,140,90,90,0,n0,0,0,0,0,0,0,0,0
11/08/11,11:13:00,38 34.1237 N,009 12.5597 W,184.83,175.38,353.3,08,1,N1,171,158,147,141,134,128,126,124,N1,122,119,118,116,113,111,103,91,n1,74,74,65,32,16,0,0,0,n1,0,0,0,0,0,0,0,0
11/08/11,11:13:05,38 33.8665 N,009 12.5400 W,185.39,176.74,351.4,08,1,N2,201,189,178,172,166,160,156,154,N2,152,151,150,147,146,144,138,129,n2,116,106,91,72,16,0,0,0,n2,0,0,0,0,0,0,0,0
11/08/11,11:13:11,38 33.5578 N,009 12.5134 W,185.52,175.91,353.9,08,1,N3,228,215,204,198,192,187,183,181,N3,178,176,174,173,171,169,164,152,n3,128,106,100,81,33,0,0,0,n3,0,0,0,0,0,0,0,0
11/08/11,11:13:18,38 33.1965 N,009 12.4808 W,186.24,175.89,353.2,08,1,N4,148,135,125,119,112,107,104,102,N4,99,97,95,94,92,90,86,83,n4,65,55,39,16,16,0,0,0,n4,0,0,0,0,0,0,0,0
11/08/11,11:13:24,38 32.8861 N,009 12.4528 W,186.51,175.86,353.2,08,1,N5,198,184,172,165,157,151,147,145,N5,142,139,137,135,133,126,118,111,n5,82,62,50,40,16,0,0,0,n5,0,0,0,0,0,0,0,0
11/08/11,11:13:30,38 32.5755 N,009 12.4250 W,186.58,175.91,353.5,08,1,N6,230,215,203,195,187,181,177,175,N6,172,169,168,164,160,156,147,133,n6,106,103,76,53,45,45,45,0,n6,0,0,0,0,0,0,0,0
11/08/11,11:13:35,38 32.3164 N,009 12.4010 W,186.92,175.76,353.3,08,1,N7,241,227,216,209,201,195,192,190,N7,186,184,183,181,179,176,169,158,n7,116,95,74,64,16,0,0,0,n7,0,0,0,0,0,0,0,0
11/08/11,11:13:41,38 32.0051 N,009 12.3710 W,187.14,175.48,352.5,08,1,N8,196,183,171,164,157,151,148,147,N8,144,141,138,136,134,132,125,111,n8,91,68,50,40,16,0,0,0,n8,0,0,0,0,0,0,0,0
11/08/11,11:13:48,38 31.6420 N,009 12.3338 W,187.12,175.25,352.1,08,1,N9,174,161,150,143,136,130,127,126,N9,124,123,121,119,116,113,107,104,n9,96,80,56,56,16,0,0,0,n9,0,0,0,0,0,0,0,0
11/08/11,11:13:54,38 31.3312 N,009 12.2996 W,186.76,174.85,353.1,08,1,N0,193,178,165,157,149,143,138,136,N0,133,130,129,126,123,117,115,109,n0,84,58,43,24,16,0,0,0,n0,0,0,0,0,0,0,0,0
11/08/11,11:14:00,38 31.0207 N,009 12.2625 W,186.73,174.52,351.9,08,1,N1,234,218,206,197,189,182,179,177,N1,175,172,170,167,165,162,150,139,n1,98,76,55,46,30,30,0,0,n1,0,0,0,0,0,0,0,0
11/08/11,11:14:05,38 30.7624 N,009 12.2302 W,186.68,174.29,352.3,08,1,N2,287,270,256,248,241,234,231,229,N2,227,223,221,219,215,210,204,188,n2,149,115,97,74,50,0,0,0,n2,0,0,0,0,0,0,0,0
11/08/11,11:14:11,38 30.4529 N,009 12.1887 W,186.45,173.84,351.7,08,1,N3,306,290,277,269,261,255,252,250,N3,247,245,243,240,236,235,223,218,n3,185,152,130,112,80,30,0,0,n3,0,0,0,0,0,0,0,0
11/08/11,11:14:18,38 30.0946 N,009 12.1382 W,184.94,173.67,361.0,08,1,N4,234,219,206,198,190,184,180,179,N4,177,175,173,171,168,165,161,150,n4,115,77,59,40,16,0,0,0,n4,0,0,0,0,0,0,0,0
11/08/11,11:14:24,38 29.7884 N,009 12.0931 W,184.69,173.30,361.4,08,1,N5,187,171,158,150,143,137,133,132,N5,128,126,125,124,120,115,113,111,n5,79,79,61,56,16,0,0,0,n5,0,0,0,0,0,0,0,0
11/08/11,11:14:30,38 29.4821 N,009 12.0468 W,184.50,173.10,362.4,08,1,N6,212,196,183,176,168,162,159,157,N6,154,152,151,150,147,144,139,128,n6,128,128,116,106,66,0,0,0,n6,0,0,0,0,0,0,0,0
11/08/11,11:14:35,38 29.2270 N,009 12.0078 W,185.11,173.17,363.1,08,1,N7,244,229,216,208,201,196,193,191,N7,188,186,185,183,180,177,168,163,n7,158,129,93,65,33,0,0,0,n7,0,0,0,0,0,0,0,0
11/08/11,11:14:41,38 28.9202 N,009 11.9605 W,185.14,173.06,362.6,08,1,N8,161,145,133,125,118,112,109,107,N8,105,103,102,99,97,95,94,89,n8,83,79,70,56,16,0,0,0,n8,0,0,0,0,0,0,0,0
11/08/11,11:14:48,38 28.5619 N,009 11.9055 W,185.46,173.15,360.7,08,1,N9,201,185,172,165,157,151,148,147,N9,144,143,142,140,137,133,130,121,n9,102,93,75,56,16,0,0,0,n9,0,0,0,0,0,0,0,0
11/08/11,11:14:54,38 28.2544 N,009 11.8589 W,185.58,173.20,360.5,08,1,N0,194,178,165,157,150,144,141,139,N0,137,134,134,132,129,126,122,116,n0,116,114,90,80,16,0,0,0,n0,0,0,0,0,0,0,0,0
11/08/11,11:15:00,38 27.9467 N,009 11.8133 W,185.69,173.37,361.2,08,1,N1,182,167,155,147,140,134,131,130,N1,128,127,126,124,122,119,117,111,n1,107,107,90,62,46,30,0,0,n1,0,0,0,0,0,0,0,0
11/08/11,11:15:05,38 27.6900 N,009 11.7764 W,186.01,173.65,360.9,08,1,N2,133,118,106,98,91,86,83,81,N2,79,77,76,75,73,71,69,66,n2,66,66,66,66,50,0,0,0,n2,0,0,0,0,0,0,0,0
11/08/11,11:15:11,38 27.3813 N,009 11.7333 W,186.03,173.74,360.4,08,1,N3,131,116,105,97,90,85,82,81,N3,79,78,77,76,75,73,69,65,n3,59,58,55,32,16,0,0,0,n3,0,0,0,0,0,0,0,0
11/08/11,11:15:18,38 27.0210 N,009 11.6843 W,186.09,173.93,359.9,08,1,N4,179,165,153,146,139,134,130,129,N4,127,126,125,124,122,121,117,114,n4,84,68,59,40,16,0,0,0,n4,0,0,0,0,0,0,0,0
11/08/11,11:15:24,38 26.7132 N,009 11.6349 W,185.96,171.43,360.8,08,1,N5,141,126,115,108,101,96,93,91,N5,89,87,85,84,82,80,79,76,n5,66,51,42,33,33,0,0,0,n5,0,0,0,0,0,0,0,0
11/08/11,11:15:30,38 26.4165 N,009 11.5251 W,185.31,159.71,361.3,08,1,N6,139,125,114,107,100,95,92,91,N6,89,88,87,85,82,81,81,78,n6,56,56,50,40,16,0,0,0,n6,0,0,0,0,0,0,0,0
11/08/11,11:15:35,38 26.1911 N,009 11.3684 W,185.07,148.15,357.7,08,1,N7,209,194,182,174,167,162,158,156,N7,154,153,152,150,148,145,142,131,n7,116,98,86,72,16,0,0,0,n7,0,0,0,0,0,0,0,0
11/08/11,11:15:41,38 25.9639 N,009 11.1085 W,181.74,133.20,375.6,09,1,N8,301,286,274,268,260,256,253,252,N8,249,248,247,246,243,241,235,232,n8,218,211,178,150,86,69,69,69,n8,0,0,0,0,0,0,0,0
11/08/11,11:15:48,38 25.7682 N,009 10.7380 W,178.68,119.97,398.5,09,1,N9,190,176,164,158,152,147,145,144,N9,142,140,139,137,134,132,130,127,n9,121,121,104,95,63,30,0,0,n9,0,0,0,0,0,0,0,0
11/08/11,11:15:54,38 25.6366 N,009 10.3991 W,177.27,115.30,413.7,09,1,N0,140,127,116,110,103,99,97,96,N0,94,93,92,90,88,87,84,75,n0,69,67,49,40,0,0,0,0,n0,0,0,0,0,0,0,0,0
11/08/11,11:16:00,38 25.5200 N,009 10.0562 W,174.81,113.34,433.9,09,1,N1,184,171,159,153,146,141,138,137,N1,134,133,132,130,129,124,120,120,n1,71,47,41,32,0,0,0,0,n1,0,0,0,0,0,0,0,0
11/08/11,11:16:05,38 25.4279 N,009 09.7724 W,172.36,112.16,455.2,09,1,N2,172,159,148,142,135,131,128,127,N2,125,123,123,122,119,116,110,107,n2,107,107,92,74,50,0,0,0,n2,0,0,0,0,0,0,0,0
11/08/11,11:16:11,38 25.3263 N,009 09.4471 W,160.23,111.44,518.6,09,1,N3,221,206,194,186,179,174,172,170,N3,167,165,164,163,160,158,154,147,n3,120,103,82,82,50,0,0,0,n3,0,0,0,0,0,0,0,0
11/08/11,11:16:18,38 25.2181 N,009 09.0988 W,146.72,111.88,601.4,09,1,N4,213,201,191,185,179,175,173,173,N4,171,169,169,166,164,161,156,148,n4,145,138,123,95,63,30,0,0,n4,0,0,0,0,0,0,0,0
11/08/11,11:16:24,38 25.1327 N,009 08.8214 W,137.60,111.62,664.6,09,1,N5,128,121,115,112,108,107,105,105,N5,104,104,103,102,101,101,101,94,n5,91,88,82,77,69,69,69,69,n5,0,0,0,0,0,0,0,0
11/08/11,11:16:30,38 25.0544 N,009 08.5579 W,130.75,110.64,720.7,09,1,N6,75,63,53,47,41,38,35,34,N6,33,33,32,31,30,29,27,27,n6,18,8,8,8,0,0,0,0,n6,0,0,0,0,0,0,0,0
11/08/11,11:16:35,38 24.9936 N,009 08.3458 W,126.77,110.24,761.3,09,1,N7,71,62,55,51,47,45,43,43,N7,42,41,41,40,39,39,37,33,n7,29,18,9,0,0,0,0,0,n7,0,0,0,0,0,0,0,0
11/08/11,11:16:41,38 24.9252 N,009 08.0950 W,124.64,108.85,800.9,09,1,N8,79,69,60,54,49,45,42,41,N8,40,39,38,38,37,35,34,33,n8,31,23,20,16,0,0,0,0,n8,0,0,0,0,0,0,0,0
11/08/11,11:16:48,38 24.8504 N,009 07.8051 W,123.03,108.28,842.7,09,1,N9,124,105,90,79,70,63,59,58,N9,56,56,55,54,52,51,50,49,n9,49,49,46,41,33,0,0,0,n9,0,0,0,0,0,0,0,0
11/08/11,11:16:54,38 24.7875 N,009 07.5580 W,122.48,108.07,875.8,09,1,N0,134,114,98,87,77,69,65,62,N0,61,60,59,58,57,57,54,53,n0,40,32,32,32,16,0,0,0,n0,0,0,0,0,0,0,0,0
11/08/11,11:17:00,38 24.7242 N,009 07.3119 W,122.04,108.40,907.6,09,1,N1,75,62,50,43,36,31,27,26,N1,25,24,24,23,22,20,19,16,n1,12,3,0,0,0,0,0,0,n1,0,0,0,0,0,0,0,0
11/08/11,11:17:05,38 24.6697 N,009 07.1078 W,122.24,109.15,932.2,09,1,N2,65,52,42,36,29,26,23,22,N2,21,20,20,18,18,17,16,16,n2,14,14,8,8,0,0,0,0,n2,0,0,0,0,0,0,0,0
11/08/11,11:17:11,38 24.6013 N,009 06.8633 W,122.59,109.90,961.0,09,1,N3,78,70,63,59,56,53,51,51,N3,50,49,48,47,45,45,43,43,n3,30,25,25,16,0,0,0,0,n3,0,0,0,0,0,0,0,0
11/08/11,11:17:18,38 24.5173 N,009 06.5784 W,123.48,111.05,993.5,09,1,N4,42,37,33,31,29,28,27,26,N4,26,25,25,25,24,24,24,22,n4,13,4,4,0,0,0,0,0,n4,0,0,0,0,0,0,0,0
11/08/11,11:17:24,38 24.4406 N,009 06.3336 W,124.74,111.99,1019.2,09,1,N5,81,76,72,70,68,66,65,65,N5,64,64,64,64,62,61,61,59,n5,54,52,46,46,46,30,0,0,n5,0,0,0,0,0,0,0,0
11/08/11,11:17:30,38 24.3610 N,009 06.0876 W,125.86,112.61,1045.0,09,1,N6,23,18,13,11,9,7,6,5,N6,5,4,4,4,3,3,3,0,n6,0,0,0,0,0,0,0,0,n6,0,0,0,0,0,0,0,0
11/08/11,11:17:35,38 24.2922 N,009 05.8817 W,126.91,113.16,1065.9,09,1,N7,97,93,89,86,84,82,82,82,N7,81,80,80,80,80,80,77,77,n7,77,77,74,69,61,45,45,0,n7,0,0,0,0,0,0,0,0
11/08/11,11:17:41,38 24.2073 N,009 05.6337 W,127.93,113.68,1090.7,09,1,N8,57,53,49,47,45,43,42,42,N8,42,41,41,41,40,40,40,37,n8,34,30,24,24,0,0,0,0,n8,0,0,0,0,0,0,0,0
11/08/11,11:17:48,38 24.1050 N,009 05.3428 W,129.21,114.25,1119.0,09,1,N9,426,421,418,416,414,412,411,411,N9,411,410,410,409,409,408,406,406,n9,406,406,406,401,377,377,377,377,n9,377,377,377,0,0,0,0,0
11/08/11,11:17:54,38 24.0149 N,009 05.0927 W,130.04,114.74,1143.8,09,1,N0,13,10,7,5,4,3,2,1,N0,1,0,0,0,0,0,0,0,n0,0,0,0,0,0,0,0,0,n0,0,0,0,0,0,0,0,0
11/08/11,11:18:00,38 23.9229 N,009 04.8418 W,130.69,114.99,1169.4,09,1,N1,42,39,37,36,34,34,33,33,N1,32,32,32,32,32,31,30,30,n1,24,11,8,8,0,0,0,0,n1,0,0,0,0,0,0,0,0
11/08/11,11:18:05,38 23.8452 N,009 04.6324 W,131.15,115.32,1190.7,09,1,N2,19,17,15,14,13,12,12,12,N2,11,10,10,10,10,9,8,8,n2,4,4,4,0,0,0,0,0,n2,0,0,0,0,0,0,0,0
11/08/11,11:18:11,38 23.7515 N,009 04.3804 W,131.53,115.23,1216.6,09,1,N3,36,33,31,30,29,28,28,28,N3,28,27,27,26,26,26,26,25,n3,24,23,20,16,0,0,0,0,n3,0,0,0,0,0,0,0,0
11/08/11,11:18:18,38 23.6418 N,009 04.0860 W,131.86,115.31,1247.0,09,1,N4,38,35,32,31,30,28,28,27,N4,27,27,27,26,26,25,22,21,n4,12,3,0,0,0,0,0,0,n4,0,0,0,0,0,0,0,0
11/08/11,11:18:24,38 23.5479 N,009 03.8332 W,131.81,115.15,1273.4,09,1,N5,53,49,46,44,43,41,40,40,N5,39,39,39,38,38,38,37,37,n5,21,19,16,16,0,0,0,0,n5,0,0,0,0,0,0,0,0
11/08/11,11:18:30,38 23.4555 N,009 03.5794 W,131.88,114.46,1298.5,09,1,N6,18,14,10,9,7,5,4,4,N6,3,3,3,3,3,3,3,0,n6,0,0,0,0,0,0,0,0,n6,0,0,0,0,0,0,0,0
11/08/11,11:18:35,38 23.3844 N,009 03.3654 W,131.29,112.13,1320.0,09,1,N7,68,63,59,57,55,53,52,51,N7,51,51,50,50,50,50,50,50,n7,44,38,29,24,16,0,0,0,n7,0,0,0,0,0,0,0,0
11/08/11,11:18:41,38 23.3087 N,009 03.1054 W,130.64,109.50,1346.3,09,1,N8,60,54,48,45,42,40,39,38,N8,38,37,37,36,36,35,35,33,n8,27,6,0,0,0,0,0,0,n8,0,0,0,0,0,0,0,0
11/08/11,11:18:48,38 23.2280 N,009 02.8002 W,129.88,108.16,1377.9,09,1,N9,103,94,86,82,78,75,73,73,N9,72,71,71,71,70,69,67,66,n9,54,41,41,32,0,0,0,0,n9,0,0,0,0,0,0,0,0
11/08/11,11:18:54,38 23.1630 N,009 02.5389 W,129.04,107.27,1405.4,09,1,N0,139,131,125,121,117,115,114,113,N0,112,112,112,111,111,110,107,104,n0,100,91,82,78,30,30,0,0,n0,0,0,0,0,0,0,0,0
11/08/11,11:19:00,38 23.1010 N,009 02.2781 W,128.23,106.60,1433.1,09,1,N1,107,99,92,88,84,82,80,80,N1,79,78,78,77,76,76,75,72,n1,62,57,42,38,30,30,0,0,n1,0,0,0,0,0,0,0,0
11/08/11,11:19:05,38 23.0510 N,009 02.0618 W,127.47,106.36,1456.5,09,1,N2,128,120,113,109,105,102,101,100,N2,99,99,98,97,96,95,94,91,n2,79,68,65,46,46,30,0,0,n2,0,0,0,0,0,0,0,0
11/08/11,11:19:11,38 22.9926 N,009 01.8028 W,127.00,105.79,1483.4,09,1,N3,170,162,155,152,148,145,144,143,N3,142,141,141,140,139,138,138,138,n3,125,123,111,102,30,30,0,0,n3,0,0,0,0,0,0,0,0
11/08/11,11:19:18,38 22.9262 N,009 01.5018 W,126.25,105.65,1514.8,09,1,N4,105,97,91,87,84,81,80,79,N4,78,77,77,76,74,73,73,70,n4,70,70,70,70,46,30,0,0,n4,0,0,0,0,0,0,0,0
11/08/11,11:19:24,38 22.8704 N,009 01.2446 W,125.70,105.29,1541.6,09,1,N5,119,111,104,100,96,94,92,91,N5,91,89,89,89,89,88,87,87,n5,87,87,87,73,33,0,0,0,n5,0,0,0,0,0,0,0,0
11/08/11,11:19:30,38 22.8149 N,009 00.9883 W,125.36,105.42,1567.9,09,1,N6,126,117,109,105,100,97,95,94,N6,93,93,92,91,91,90,90,86,n6,60,39,33,24,0,0,0,0,n6,0,0,0,0,0,0,0,0
11/08/11,11:19:35,38 22.7688 N,009 00.7754 W,125.01,105.39,1589.9,09,1,N7,173,163,155,151,146,142,140,139,N7,138,137,137,136,135,134,133,131,n7,108,70,58,48,16,0,0,0,n7,0,0,0,0,0,0,0,0
11/08/11,11:19:41,38 22.7133 N,009 00.5204 W,124.83,105.56,1615.4,09,1,N8,164,154,146,141,137,133,130,130,N8,128,128,127,127,126,125,122,118,n8,107,85,64,54,46,30,0,0,n8,0,0,0,0,0,0,0,0
11/08/11,11:19:48,38 22.6469 N,009 00.2228 W,125.42,106.05,1642.0,09,1,N9,129,119,110,105,100,97,95,94,N9,93,92,91,90,89,89,86,80,n9,69,63,51,32,16,0,0,0,n9,0,0,0,0,0,0,0,0
11/08/11,11:19:54,38 22.5872 N,008 59.9646 W,128.00,106.68,1656.8,09,1,N0,138,127,119,114,110,106,104,103,N0,103,102,102,101,101,100,99,94,n0,94,94,94,94,78,45,45,0,n0,0,0,0,0,0,0,0,0
11/08/11,11:20:00,38 22.5238 N,008 59.6992 W,132.40,107.04,1664.0,09,1,N1,90,79,70,66,61,57,54,54,N1,52,51,51,51,50,50,48,45,n1,29,7,4,0,0,0,0,0,n1,0,0,0,0,0,0,0,0
11/08/11,11:20:05,38 22.4683 N,008 59.4714 W,135.99,107.29,1668.6,09,1,N2,102,91,82,77,72,68,65,64,N2,63,62,61,61,60,60,59,54,n2,48,44,41,32,0,0,0,0,n2,0,0,0,0,0,0,0,0
11/08/11,11:20:11,38 22.3980 N,008 59.1905 W,140.60,107.83,1671.2,09,1,N3,106,95,86,81,77,73,71,70,N3,68,67,67,66,64,63,61,61,n3,57,44,41,41,33,0,0,0,n3,0,0,0,0,0,0,0,0
11/08/11,11:20:18,38 22.3105 N,008 58.8518 W,145.96,108.33,1671.1,09,1,N4,163,152,142,137,132,129,126,125,N4,124,124,123,122,121,121,120,120,n4,112,95,89,80,80,30,0,0,n4,0,0,0,0,0,0,0,0
11/08/11,11:20:24,38 22.2309 N,008 58.5525 W,150.41,108.77,1669.2,09,1,N5,221,209,200,195,189,185,183,182,N5,181,180,179,179,177,175,171,168,n5,141,117,102,98,50,0,0,0,n5,0,0,0,0,0,0,0,0
11/08/11,11:20:30,38 22.1476 N,008 58.2457 W,154.21,109.11,1667.6,09,1,N6,131,120,112,107,103,99,97,95,N6,94,93,93,91,91,91,85,81,n6,80,70,58,54,30,30,0,0,n6,0,0,0,0,0,0,0,0
11/08/11,11:20:35,38 22.0756 N,008 57.9851 W,157.11,109.38,1665.9,09,1,N7,94,83,74,69,64,60,58,57,N7,56,55,55,55,54,52,50,48,n7,39,32,26,8,0,0,0,0,n7,0,0,0,0,0,0,0,0
11/08/11,11:20:41,38 21.9868 N,008 57.6669 W,160.02,109.50,1664.7,09,1,N8,56,45,36,31,26,22,20,19,N8,17,17,16,16,15,14,9,0,n8,0,0,0,0,0,0,0,0,n8,0,0,0,0,0,0,0,0